Weather History for Durango, CO

Change the Weather History Date:

Friday, June 7, 2013

  Actual Average Record
Temperature  
Mean Temperature 62 °F 60 °F  
Max Temperature 83 °F 79 °F 92 °F (1985)
Min Temperature 41 °F 40 °F 28 °F (2007)
Degree Days  
Heating Degree Days 3 6  
Month to date heating degree days 25 46  
Since 1 June heating degree days 25 46  
Since 1 July heating degree days 7131 7054  
Cooling Degree Days 0 0  
Month to date cooling degree days 0 0  
Year to date cooling degree days 0 1  
Since 1 June cooling degree days 0 0  
Growing Degree Days 10 (Base 50)    
Moisture  
Dew Point 30 °F    
Average Humidity 36    
Maximum Humidity 60    
Minimum Humidity 12    
Precipitation  
Precipitation 0.00 in 0.01 in 0.22 in (1970)
Month to date precipitation T 0.10  
Year to date precipitation 3.75 5.53  
Sea Level Pressure  
Sea Level Pressure 29.85 in    
Wind  
Wind Speed 6 mph (North)    
Max Wind Speed 22 mph    
Max Gust Speed 29 mph    
Visibility 10 miles    
Events      
T = Trace of Precipitation, MM = Missing Value Source: NWS Daily Summary

Daily Weather History Graph

Daily Weather History Graph

Search for Another Location

Airport:

Trip Planner

Search our weather history database for the weather conditions in past years. The results will help you decide how hot, cold, wet, or windy it might be!

Date:

Astronomy

Jun. 07, 2013 Rise Set
Actual Time 5:50 AM MDT 8:29 PM MDT
Civil Twilight 5:20 AM MDT 8:59 PM MDT
Nautical Twilight 4:42 AM MDT 9:38 PM MDT
Astronomical Twilight 3:59 AM MDT 10:20 PM MDT
Moon 5:14 AM MDT (6/7) 7:47 PM MDT (6/7)
Length of Visible Light 15h 39m
Length of Day
14h 38m
Waning Crescent, 1% of the Moon is Illuminated
Jun 7
Waning Crescent
Jun 8
New
Jun 16
First Quarter
Jun 23
Full
Jun 29
Last Quarter

Hourly Weather History & Observations

Time (MDT) Temp. Dew Point Humidity Pressure Visibility Wind Dir Wind Speed Gust Speed Precip Events Conditions
12:53 AM 54.0 °F 30.0 °F 40% 29.87 in 10.0 mi North 5.8 mph - N/A   Clear
1:53 AM 52.0 °F 30.0 °F 43% 29.87 in 10.0 mi NNE 6.9 mph - N/A   Clear
2:53 AM 46.9 °F 30.9 °F 54% 29.90 in 10.0 mi Calm Calm - N/A   Clear
3:53 AM 48.9 °F 28.0 °F 44% 29.90 in 10.0 mi North 5.8 mph - N/A   Clear
4:53 AM 45.0 °F 28.9 °F 53% 29.93 in 10.0 mi Calm Calm - N/A   Clear
5:53 AM 41.0 °F 28.0 °F 60% 29.96 in 10.0 mi Calm Calm - N/A   Clear
6:53 AM 52.0 °F 32.0 °F 47% 29.93 in 10.0 mi Calm Calm - N/A   Clear
7:53 AM 59.0 °F 35.1 °F 41% 29.93 in 10.0 mi Calm Calm - N/A   Clear
8:53 AM 66.0 °F 35.1 °F 32% 29.94 in 10.0 mi East 4.6 mph - N/A   Clear
9:53 AM 69.1 °F 39.0 °F 33% 29.93 in 10.0 mi East 6.9 mph - N/A   Clear
10:53 AM 73.0 °F 37.9 °F 28% 29.90 in 10.0 mi ESE 5.8 mph - N/A   Clear
11:53 AM 75.0 °F 35.1 °F 23% 29.88 in 10.0 mi Variable 5.8 mph - N/A   Clear
12:53 PM 79.0 °F 28.9 °F 16% 29.83 in 10.0 mi West 4.6 mph - N/A   Clear
1:53 PM 80.1 °F 30.0 °F 16% 29.81 in 10.0 mi West 16.1 mph 23.0 mph N/A   Scattered Clouds
2:53 PM 75.0 °F 35.1 °F 23% 29.84 in 10.0 mi ENE 13.8 mph 18.4 mph N/A   Overcast
3:53 PM 78.1 °F 32.0 °F 19% 29.80 in 10.0 mi East 13.8 mph 21.9 mph N/A   Clear
4:53 PM 80.1 °F 30.0 °F 16% 29.78 in 10.0 mi Calm Calm - N/A   Clear
5:53 PM 79.0 °F 28.0 °F 15% 29.78 in 10.0 mi NNW 6.9 mph 18.4 mph N/A   Clear
6:53 PM 80.1 °F 23.0 °F 12% 29.73 in 10.0 mi NNW 16.1 mph - N/A   Clear
7:53 PM 75.9 °F 23.0 °F 14% 29.73 in 10.0 mi NNW 12.7 mph - N/A   Clear
8:53 PM 71.1 °F 24.1 °F 17% 29.74 in 10.0 mi NW 6.9 mph - N/A   Clear
9:53 PM 64.9 °F 26.1 °F 23% 29.78 in 10.0 mi North 5.8 mph - N/A   Clear
10:53 PM 62.1 °F 28.0 °F 28% 29.78 in 10.0 mi North 4.6 mph - N/A   Clear
11:53 PM 53.1 °F 28.9 °F 40% 29.81 in 10.0 mi ENE 5.8 mph - N/A   Clear